Location: Maccacari
(45.1333°N, 11.1333°E)
Time: 15:10:56
(UTC+00:00)

SR - Pass Details

Date: 26 June 2021
Orbit: 577 x 878 km, 66.7° (Epoch: 24 July)

Event Time Altitude Azimuth Distance (km) Brightness Sun altitude
Rises 23:34:58 0° 320° (NW) 3,244 ? -21.4°
Reaches altitude 10° 23:37:39 10° 311° (NW) 2,261 ? -21.4°
Maximum altitude 23:42:11 33° 249° (WSW) 1,180 ? -21.3°
Enters shadow 23:42:23 32° 244° (WSW) 1,180 ? -21.3°
